#timestamp,LO_Frequency,Hit,StdDev 
1590735615.0,286047000.4,N
1590735615.9,286047000.4,N
1590735635.8,286047000.1,N
1590735655.6,286047001.2,N
1590735675.5,286047000.8,N
1590735695.3,286046999.9,N
1590735715.1,286047000.0,N
1590735735.9,286047000.8,N
1590735755.7,286047002.4,Y
1590735775.6,286047001.9,P
1590735795.4,286047002.3,P
1590735815.2,286046998.6,N
1590735835.1,286046999.2,N
1590735836.0,286046999.2,N
1590735855.8,286046999.9,N
1590735875.7,286047000.1,N
1590735895.5,286047002.6,N
1590735915.3,286047000.3,N
1590735935.2,286046998.9,N
1590735955.0,286046998.4,N
1590735955.9,286046998.4,N
1590735975.8,286046996.6,N
1590735995.6,286046998.1,N
1590736015.4,286047000.9,N
1590736035.3,286046999.7,N
1590736055.1,286046999.8,N
1590736075.8,286047000.8,N
1590736095.7,286046999.0,N
1590736115.5,286046998.2,N
1590736135.4,286046999.3,N
1590736155.2,286047000.5,N
1590736175.0,286047001.5,N
1590736175.9,286047001.5,N
1590736195.8,286046999.9,N
1590736215.6,286047000.0,N
1590736235.4,286047000.3,N
1590736255.3,286046999.3,N
1590736275.1,286046998.4,N
1590736295.9,286047000.4,N
1590736315.7,286047000.2,N
1590736335.5,286047001.0,N
1590736355.4,286046998.2,N
1590736375.2,286046999.0,N
1590736395.1,286047001.0,N
1590736396.0,286047001.0,N
1590736415.8,286046998.5,N
1590736435.6,286046996.8,N
1590736455.5,286047000.5,N
1590736475.3,286047002.5,N
1590736495.1,286047001.3,N
1590736515.9,286047002.5,N
1590736535.7,286047000.0,N
1590736555.6,286047001.1,N
1590736575.4,286047001.1,N
1590736595.2,286047000.5,N
1590736615.1,286047001.6,N
1590736616.0,286047001.6,N
1590736635.8,286047001.4,N
1590736655.7,286047003.9,N
1590736675.5,286047003.9,N
1590736695.3,286047002.3,N
1590736715.2,286047001.4,N
1590736735.0,286047002.5,N
1590736735.9,286047002.5,N
1590736755.7,286047002.7,N
1590736775.6,286047001.1,N
1590736795.4,286046998.6,N
1590736815.3,286046998.9,N
1590736835.1,286046998.5,N
1590736855.8,286046999.8,N
1590736875.7,286047001.9,N
1590736895.5,286047002.6,N
1590736915.4,286047000.7,N
1590736935.2,286047000.3,N
1590736955.0,286047002.7,N
1590736955.9,286047002.7,N
1590736975.8,286047001.4,N
1590736995.6,286047002.5,N
1590737015.4,286047001.7,N
1590737035.3,286047001.4,N
1590737055.1,286046999.8,N
1590737075.9,286047000.5,N
1590737095.7,286046999.4,N
1590737115.5,286047002.8,N
1590737135.4,286047002.4,N
1590737155.2,286046999.0,N
1590737175.1,286047000.4,N
1590737176.0,286047000.4,N
1590737195.8,286047000.2,N
1590737215.6,286046999.7,N
1590737235.5,286047002.1,N
1590737255.3,286047002.4,N
1590737275.1,286047001.8,N
1590737295.9,286047003.8,N
1590737315.7,286047003.7,N
1590737335.6,286047000.0,N
1590737355.4,286047000.2,N
1590737375.2,286046999.8,N
1590737395.1,286047002.1,N
1590737396.0,286047002.1,N
1590737415.8,286047002.2,N
1590737435.7,286047004.0,Y
1590737455.5,286047002.4,P
1590737475.3,286047002.4,P
1590737495.2,286047002.7,P
1590737515.0,286047000.2,N
1590737515.9,286047000.2,N
1590737535.8,286047001.4,N
1590737555.6,286047001.9,N
1590737575.4,286047002.1,N
1590737595.3,286047002.8,Y
1590737615.1,286046998.1,P
1590737635.8,286046997.9,N
1590737655.7,286046997.4,N
1590737675.5,286046998.6,N
1590737695.4,286046998.1,N
1590737715.2,286046998.6,N
1590737735.0,286046998.6,N
1590737735.9,286046998.6,N
1590737755.8,286047000.3,N
1590737775.6,286047001.5,N
1590737795.5,286047000.6,N
1590737815.3,286047000.5,N
1590737835.1,286047000.9,N
1590737855.9,286046998.1,N
1590737875.7,286046999.6,N
1590737895.6,286046997.0,N
1590737915.4,286046996.5,N
1590737935.2,286046997.2,N
1590737955.1,286046998.4,N
1590737956.0,286046998.4,N
1590737975.8,286046998.3,N
1590737995.7,286046999.6,N
1590738015.5,286046996.9,N
1590738035.3,286047001.0,N
1590738055.2,286046998.3,N
1590738075.0,286046998.4,N
1590738075.9,286046998.4,N
1590738095.8,286046998.1,N
1590738115.6,286046999.8,N
1590738135.4,286046999.3,N
1590738155.3,286046997.0,N
1590738175.1,286046997.5,N
1590738195.9,286046999.0,N
1590738215.7,286046996.8,N
1590738235.5,286046996.9,N
1590738255.4,286046998.5,N
1590738275.2,286046999.9,N
1590738295.0,286047003.2,N
1590738295.9,286047003.2,N
1590738315.8,286047002.5,N
1590738335.6,286047000.8,N
1590738355.5,286046999.3,N
1590738375.3,286047001.0,N
1590738395.1,286047002.7,N
1590738415.9,286047003.6,N
1590738435.7,286047003.1,N
1590738455.6,286047002.5,N
1590738475.4,286047001.8,N
1590738495.2,286047000.3,N
1590738515.1,286047000.6,N
1590738516.0,286047000.6,N
1590738535.8,286047002.5,N
1590738555.6,286047002.4,N
1590738575.5,286047000.6,N
1590738595.3,286046998.7,N
1590738615.2,286046997.3,N
1590738635.9,286046994.9,N
1590738655.7,286046997.7,N
1590738675.6,286046995.0,N
1590738695.4,286046995.7,N
1590738715.2,286046996.2,N
1590738735.1,286046993.8,N
1590738736.0,286046993.8,N
1590738755.8,286046994.6,N
1590738775.7,286046992.0,N
1590738795.5,286046994.4,N
1590738815.3,286046991.8,N
1590738835.2,286046993.2,N
1590738855.0,286046990.3,N
1590738855.9,286046990.3,N
1590738875.8,286046994.3,N
1590738895.6,286046992.3,N
1590738915.4,286046994.8,N
1590738935.3,286046994.2,N
1590738955.1,286046994.4,N
1590738975.8,286046993.6,N
1590738995.7,286046992.2,N
1590739015.5,286046992.0,N
1590739035.4,286046992.1,N
1590739055.2,286046991.7,N
1590739075.0,286046991.9,N
1590739075.9,286046991.9,N
1590739095.8,286046993.5,N
1590739115.6,286046994.3,N
1590739135.5,286046992.5,Y
1590739155.3,286046996.8,P
1590739175.1,286046999.3,N
1590739195.9,286046995.3,N
